EN

Hourly Weather Altare

Today, 18 January, Monday

Time Temperature Precipitation Wind Pressure Humidity
00:00 -1°C° 0 mm 3 mps 729 mmHg 82%
01:00 -1°C° 0 mm 3 mps 729 mmHg 79%
02:00 -1°C° 0 mm 3 mps 730 mmHg 78%
03:00 -1°C° 0 mm 2 mps 730 mmHg 78%
04:00 -1°C° 0 mm 2 mps 730 mmHg 77%
05:00 -1°C° 0 mm 2 mps 730 mmHg 77%
06:00 -2°C° 0 mm 2 mps 730 mmHg 76%
07:00 -2°C° 0 mm 2 mps 730 mmHg 75%
08:00 -1°C° 0 mm 2 mps 731 mmHg 74%
09:00 +2°C° 0 mm 2 mps 731 mmHg 72%
10:00 +3°C° 0 mm 2 mps 731 mmHg 71%
11:00 +5°C° 0 mm 1 mps 731 mmHg 69%
12:00 +6°C° 0 mm 1 mps 731 mmHg 68%
13:00 +7°C° 0 mm 1 mps 731 mmHg 66%
14:00 +6°C° 0 mm 1 mps 731 mmHg 69%
15:00 +6°C° 0 mm 1 mps 731 mmHg 72%
16:00 +6°C° 0 mm 1 mps 731 mmHg 75%
17:00 +4°C° 0 mm 1 mps 731 mmHg 77%
18:00 +3°C° 0 mm 1 mps 732 mmHg 79%
19:00 +1°C° 0 mm 1 mps 732 mmHg 81%
20:00 +1°C° 0 mm 1 mps 732 mmHg 81%
21:00 +1°C° 0 mm 1 mps 732 mmHg 80%
22:00 +1°C° 0 mm 1 mps 732 mmHg 79%
23:00 +1°C° 0 mm 1 mps 733 mmHg 79%

Tomorrow, 19 January, Tuesday

Time Temperature Precipitation Wind Pressure Humidity
00:00 +1°C° 0 mm 1 mps 733 mmHg 79%
01:00 +1°C° 0 mm 1 mps 733 mmHg 79%
02:00 +1°C° 0 mm 1 mps 733 mmHg 80%
03:00 +1°C° 0 mm 1 mps 732 mmHg 82%
04:00 +2°C° 0 mm 1 mps 732 mmHg 83%
05:00 +2°C° 0 mm 1 mps 732 mmHg 85%
06:00 +2°C° 0 mm 1 mps 733 mmHg 87%
07:00 +2°C° 0 mm 1 mps 733 mmHg 88%
08:00 +2°C° 0.1 mm 1 mps 733 mmHg 87%
09:00 +3°C° 0.1 mm 1 mps 733 mmHg 86%
10:00 +4°C° 0.1 mm 1 mps 733 mmHg 85%
11:00 +4°C° 0.1 mm 1 mps 733 mmHg 85%
12:00 +5°C° 0.1 mm 1 mps 733 mmHg 85%
13:00 +5°C° 0.1 mm 1 mps 733 mmHg 85%
14:00 +5°C° 0 mm 1 mps 732 mmHg 87%
15:00 +5°C° 0 mm 1 mps 732 mmHg 88%
16:00 +5°C° 0 mm 1 mps 731 mmHg 89%
17:00 +4°C° 0.1 mm 1 mps 731 mmHg 90%
18:00 +4°C° 0.1 mm 1 mps 732 mmHg 91%
19:00 +3°C° 0.1 mm 1 mps 732 mmHg 92%
20:00 +3°C° 0 mm 1 mps 732 mmHg 91%
21:00 +3°C° 0 mm 1 mps 731 mmHg 91%
22:00 +2°C° 0 mm 1 mps 731 mmHg 90%
23:00 +2°C° 0 mm 1 mps 731 mmHg 89%

Day after tomorrow, 20 January, Wednesday

Time Temperature Precipitation Wind Pressure Humidity
00:00 +2°C° 0 mm 1 mps 731 mmHg 89%
01:00 +2°C° 0 mm 1 mps 731 mmHg 88%
02:00 +2°C° 0 mm 1 mps 731 mmHg 87%
03:00 +1°C° 0 mm 2 mps 730 mmHg 86%
04:00 +1°C° 0 mm 2 mps 730 mmHg 85%
05:00 -1°C° 0 mm 2 mps 730 mmHg 85%
06:00 -1°C° 0 mm 2 mps 730 mmHg 85%
07:00 -1°C° 0 mm 2 mps 729 mmHg 86%
08:00 +1°C° 0 mm 2 mps 729 mmHg 85%
09:00 +1°C° 0 mm 2 mps 730 mmHg 85%
10:00 +2°C° 0 mm 2 mps 730 mmHg 84%
11:00 +2°C° 0 mm 2 mps 729 mmHg 85%
12:00 +3°C° 0 mm 2 mps 729 mmHg 85%
13:00 +3°C° 0 mm 2 mps 729 mmHg 86%
14:00 +4°C° 0 mm 1 mps 729 mmHg 87%
15:00 +4°C° 0 mm 1 mps 728 mmHg 88%
16:00 +4°C° 0 mm 1 mps 728 mmHg 89%
17:00 +4°C° 0.1 mm 1 mps 728 mmHg 90%
18:00 +2°C° 0.1 mm 2 mps 728 mmHg 90%
19:00 +2°C° 0.1 mm 2 mps 728 mmHg 91%
20:00 +2°C° 0.2 mm 2 mps 727 mmHg 92%
21:00 +2°C° 0.2 mm 2 mps 727 mmHg 94%
22:00 +1°C° 0.2 mm 2 mps 727 mmHg 96%
23:00 +1°C° 0.2 mm 2 mps 726 mmHg 96%

21 January, Thursday

Time Temperature Precipitation Wind Pressure Humidity
00:00 +1°C° 0.2 mm 2 mps 726 mmHg 96%
01:00 0°C° 0.2 mm 3 mps 726 mmHg 97%
02:00 0°C° 0.6 mm 3 mps 725 mmHg 97%
03:00 0°C° 0.6 mm 3 mps 725 mmHg 96%
04:00 0°C° 0.6 mm 3 mps 724 mmHg 96%
05:00 0°C° 1 mm 3 mps 724 mmHg 96%
06:00 0°C° 1 mm 3 mps 724 mmHg 96%
07:00 0°C° 1 mm 3 mps 724 mmHg 96%
08:00 0°C° 0.4 mm 3 mps 724 mmHg 95%
09:00 0°C° 0.4 mm 3 mps 724 mmHg 95%
10:00 +1°C° 0.4 mm 3 mps 724 mmHg 94%
11:00 +1°C° 0.1 mm 3 mps 723 mmHg 94%
12:00 +2°C° 0.1 mm 2 mps 723 mmHg 94%
13:00 +3°C° 0.1 mm 2 mps 723 mmHg 94%
14:00 +3°C° 0.1 mm 2 mps 723 mmHg 94%
15:00 +3°C° 0.1 mm 2 mps 722 mmHg 94%
16:00 +4°C° 0.1 mm 1 mps 722 mmHg 95%
17:00 +4°C° 0.1 mm 1 mps 722 mmHg 95%
18:00 +4°C° 0.1 mm 1 mps 722 mmHg 95%
19:00 +4°C° 0.1 mm 1 mps 721 mmHg 95%
20:00 +4°C° 0.5 mm 1 mps 721 mmHg 96%
21:00 +4°C° 0.5 mm 1 mps 720 mmHg 97%
22:00 +4°C° 0.5 mm 1 mps 719 mmHg 98%
23:00 +3°C° 1 mm 2 mps 719 mmHg 98%

22 January, Friday

Time Temperature Precipitation Wind Pressure Humidity
00:00 +3°C° 1 mm 3 mps 718 mmHg 98%
01:00 +3°C° 1 mm 4 mps 717 mmHg 99%
02:00 +3°C° 0.5 mm 3 mps 717 mmHg 98%
03:00 +2°C° 0.5 mm 3 mps 716 mmHg 98%
04:00 +2°C° 0.5 mm 3 mps 715 mmHg 97%
05:00 +2°C° 0 mm 3 mps 715 mmHg 96%
06:00 +2°C° 0 mm 3 mps 715 mmHg 95%
07:00 +2°C° 0 mm 2 mps 714 mmHg 95%
08:00 +3°C° 0 mm 2 mps 714 mmHg 94%
09:00 +4°C° 0 mm 2 mps 714 mmHg 93%
10:00 +5°C° 0 mm 1 mps 714 mmHg 93%
11:00 +6°C° 0 mm 1 mps 714 mmHg 92%
12:00 +5°C° 0 mm 2 mps 713 mmHg 92%
13:00 +6°C° 0 mm 2 mps 713 mmHg 91%
14:00 +6°C° 0 mm 2 mps 713 mmHg 92%
15:00 +5°C° 0 mm 2 mps 713 mmHg 93%
16:00 +5°C° 0 mm 2 mps 713 mmHg 94%
17:00 +4°C° 0 mm 2 mps 713 mmHg 93%
18:00 +2°C° 0 mm 3 mps 713 mmHg 93%
19:00 +2°C° 0 mm 3 mps 714 mmHg 92%
20:00 +1°C° 0 mm 3 mps 714 mmHg 88%
21:00 +2°C° 0 mm 2 mps 714 mmHg 85%
22:00 +2°C° 0 mm 2 mps 715 mmHg 81%
23:00 +2°C° 0 mm 2 mps 715 mmHg 76%

23 January, Saturday

Time Temperature Precipitation Wind Pressure Humidity
00:00 +2°C° 0 mm 2 mps 715 mmHg 71%
01:00 +2°C° 0 mm 2 mps 715 mmHg 67%
02:00 +2°C° 0 mm 2 mps 716 mmHg 65%
03:00 +1°C° 0 mm 2 mps 716 mmHg 63%
04:00 +1°C° 0 mm 2 mps 716 mmHg 61%
05:00 +1°C° 0 mm 2 mps 716 mmHg 61%
06:00 +1°C° 0 mm 2 mps 717 mmHg 61%
07:00 +1°C° 0 mm 2 mps 717 mmHg 61%
08:00 +3°C° 0 mm 1 mps 718 mmHg 60%
09:00 +4°C° 0 mm 1 mps 718 mmHg 60%
10:00 +6°C° 0 mm 1 mps 718 mmHg 60%
11:00 +6°C° 0 mm 1 mps 718 mmHg 64%
12:00 +6°C° 0 mm 2 mps 718 mmHg 68%
13:00 +7°C° 0 mm 2 mps 718 mmHg 72%
14:00 +5°C° 0 mm 3 mps 717 mmHg 75%
15:00 +5°C° 0 mm 4 mps 717 mmHg 77%
16:00 +5°C° 0 mm 4 mps 716 mmHg 80%
17:00 +3°C° 0 mm 4 mps 716 mmHg 82%
18:00 +1°C° 0 mm 3 mps 716 mmHg 83%
19:00 0°C° 0 mm 3 mps 717 mmHg 85%
20:00 -1°C° 0 mm 3 mps 717 mmHg 84%
21:00 -1°C° 0 mm 3 mps 717 mmHg 83%
22:00 -1°C° 0 mm 2 mps 718 mmHg 82%
23:00 -1°C° 0 mm 2 mps 718 mmHg 80%
Show more